Location: Newark
(48.9886°N, 1.2358°E)
Time: 17:21:17
(UTC+00:00)

Altair - Visible Passes

Search period start: 15 November 2019 00:00
Search period end: 25 November 2019 00:00
Orbit: 1502 x 1682 km, 47.2° (Epoch: 13 November)

Date Brightness Start Highest point End Pass type
(mag) Time Alt. Az. Time Alt. Az. Time Alt. Az.
15 Nov 9.4 01:46:17 13° ESE 01:46:17 13° ESE 01:49:10 10° E visible
15 Nov 8.1 03:44:20 32° S 03:47:45 43° SE 03:56:18 10° ENE visible
15 Nov 7.6 05:42:32 10° WSW 05:51:42 76° SSE 06:01:06 10° E visible
16 Nov 9.6 01:22:54 10° ESE 01:22:54 10° ESE 01:23:15 10° ESE visible
16 Nov 8.1 03:20:57 38° SSE 03:22:42 41° SE 03:31:06 10° ENE visible
16 Nov 7.6 05:19:00 17° WSW 05:26:33 75° SSE 05:35:54 10° E visible
17 Nov 8.2 02:57:30 38° SE 02:57:39 38° SE 03:05:54 10° ENE visible
17 Nov 7.5 04:55:32 25° WSW 05:01:25 73° SSE 05:10:43 10° E visible
18 Nov 8.4 02:33:58 34° ESE 02:33:58 34° ESE 02:40:41 10° ENE visible
18 Nov 7.5 04:32:01 36° SW 04:36:17 71° SSE 04:45:32 10° E visible
18 Nov 7.6 06:31:35 10° W 06:40:48 80° S 06:50:16 10° ESE visible
19 Nov 8.7 02:10:24 28° ESE 02:10:24 28° ESE 02:15:26 10° E visible
19 Nov 7.5 04:08:26 48° SW 04:11:10 69° SSE 04:20:22 10° E visible
19 Nov 7.6 06:06:28 10° W 06:15:38 81° S 06:25:04 10° E visible
20 Nov 9.1 01:46:47 22° E 01:46:47 22° E 01:50:12 10° E visible
20 Nov 7.4 03:44:49 61° SSW 03:46:03 66° SSE 03:55:11 10° E visible
20 Nov 7.5 05:42:51 17° W 05:50:30 81° S 05:59:54 10° E visible
21 Nov 9.4 01:23:07 16° E 01:23:07 16° E 01:24:57 10° E visible
21 Nov 7.5 03:21:09 64° SSE 03:21:09 64° SSE 03:30:01 10° E visible
21 Nov 7.4 05:19:11 24° W 05:25:20 82° S 05:34:43 10° E visible
22 Nov 9.6 00:59:26 11° E 00:59:26 11° E 00:59:41 10° E visible
22 Nov 7.8 02:57:28 54° ESE 02:57:28 54° ESE 03:04:51 10° E visible
22 Nov 7.4 04:55:29 34° W 05:00:11 82° S 05:09:32 10° E visible
23 Nov 8.2 02:33:45 42° E 02:33:45 42° E 02:39:41 10° ENE visible
23 Nov 7.4 04:31:47 46° WSW 04:35:02 81° S 04:44:21 10° E visible
23 Nov 7.7 06:30:25 10° W 06:39:28 65° SSW 06:48:44 10° ESE visible
24 Nov 8.6 02:10:02 32° E 02:10:02 32° E 02:14:31 10° ENE visible
24 Nov 7.3 04:08:03 62° WSW 04:09:53 81° S 04:19:11 10° E visible
24 Nov 7.6 06:06:04 13° W 06:14:21 67° SSW 06:23:38 10° ESE visible
